This demonstration page uses our WeatherBlox Daily Observations layout. Learn more.

Left ArrowRight Arrow

38.20091, -84.87328

Hourly Observations for June 29, 2022

Temp ( °F °C ) Dew Point ( °F °C ) Humidity (%) Winds ( mph kmh ) Pressure ( in mb ) Visibility ( mi km ) Precip ( " mm )
12:53 am 00:53 Clear 58 14.4 54 12.2 87 87 Calm 30.19 1022 10 16 0.00 0.00
1:53 am 01:53 Clear 56 13.3 53 11.7 90 90 Calm 30.19 1023 10 16 0.00 0.00
2:53 am 02:53 Clear 55 12.8 52 11.1 90 90 NNW 3 6 30.19 1023 10 16 0.00 0.00
3:53 am 03:53 Clear 55 12.8 52 11.1 90 90 Calm 30.19 1022 10 16 0.00 0.00
4:53 am 04:53 Clear 53 11.7 51 10.6 93 93 Calm 30.19 1023 10 16 0.00 0.00
5:53 am 05:53 Clear 53 11.7 50 10 89 89 Calm 30.20 1023 10 16 0.00 0.00
6:53 am 06:53 Sunny 53 11.7 50 10 89 89 Calm 30.21 1023 10 16 0.00 0.00
7:53 am 07:53 Sunny 59 15 54 12.2 83 83 Calm 30.22 1024 10 16 0.00 0.00
8:53 am 08:53 Sunny 67 19.4 55 12.8 66 66 N 3 6 30.24 1024 10 16 0.00 0.00
9:53 am 09:53 Sunny 73 22.8 57 13.9 57 57 Calm 30.25 1025 10 16 0.00 0.00
10:53 am 10:53 Sunny 77 25 56 13.3 48 48 SSE 3 6 30.25 1024 10 16 0.00 0.00
11:53 am 11:53 Sunny 80 26.7 53 11.7 39 39 VRB 6 9 30.25 1025 10 16 0.00 0.00
12:53 pm 12:53 Sunny 82 27.8 52 11.1 35 35 Calm 30.25 1024 10 16 0.00 0.00
1:53 pm 13:53 Sunny 84 28.9 53 11.7 34 34 VRB 5 7 30.24 1024 10 16 0.00 0.00
2:53 pm 14:53 Sunny 84 28.9 49 9.4 30 30 NNW 3 6 30.22 1023 10 16 0.00 0.00
3:53 pm 15:53 Sunny 86 30 45 7.2 24 24 Calm 30.20 1023 10 16 0.00 0.00
4:53 pm 16:53 Sunny 87 30.6 46 7.8 24 24 NNE 6 9 30.20 1023 10 16 0.00 0.00
5:53 pm 17:53 Sunny 88 31.1 43 6.1 21 21 NNE 6 9 30.18 1022 10 16 0.00 0.00
6:53 pm 18:53 Sunny 87 30.6 42 5.6 21 21 NNW 5 7 30.17 1022 10 16 0.00 0.00
7:53 pm 19:53 Sunny 86 30 47 8.3 26 26 N 5 7 30.17 1022 10 16 0.00 0.00
8:53 pm 20:53 Sunny 78 25.6 54 12.2 43 43 Calm 30.17 1022 10 16 0.00 0.00
9:53 pm 21:53 Clear 71 21.7 55 12.8 57 57 Calm 30.18 1022 10 16 0.00 0.00
10:53 pm 22:53 Clear 67 19.4 56 13.3 68 68 Calm 30.20 1023 10 16 0.00 0.00
11:53 pm 23:53 Clear 64 17.8 56 13.3 75 75 Calm 30.21 1023 10 16 0.00 0.00

Powered by AerisWeather